Tracking 20621 objects as of 1-Apr-2020
HD Live streaming from Space Station
objects crossing your sky now

DELTA 1 DEB

Track DELTA 1 DEB now!
10-day predictions


NORAD ID: 10211
Int'l Code: 1977-065AQ
Perigee: 878.3 km
Apogee: 1,926.3 km
Inclination: 29.5 °
Period: 113.7 minutes
Semi major axis: 7773 km
RCS: 0.0969 m2 (small)
Launch date: July 14, 1977
Source: United States (US)
Launch site: AIR FORCE EASTERN TEST RANGE (AFETR)

Note: This is SATELLITE DEBRIS
aabbcc
Your satellite tracking list
Your tracking list is empty




NASA's NSSDC Master Catalog

Two Line Element Set (TLE):
1 10211U 77065AQ  20091.34585793 +.00001551 +00000-0 +31531-2 0  9993
2 10211 029.4757 167.8200 0674133 250.1369 102.5324 12.66758388822660
Source of the keplerian elements: AFSPC